Location: Hopville
(44.8032°N, 123.1329°W)
Time: 04:28:35
(UTC+00:00)

Radarsat Rocket - Pass Details

Date: 24 January 2021
Orbit: 933 x 1492 km, 100.6° (Epoch: 26 February)

Event Time Altitude Azimuth Distance (km) Brightness Sun altitude
Rises 14:57:45 0° 15° (NNE) 4,422 7.4 -7.7°
Reaches altitude 10° 15:00:38 10° 14° (NNE) 3,377 6.8 -7.2°
Maximum altitude 15:08:22 76° 291° (WNW) 1,250 4.5 -5.9°
Drops below altitude 10° 15:15:06 10° 207° (SSW) 2,959 6.5 -4.8°
Sets 15:17:29 0° 205° (SSW) 3,847 7.1 -4.4°
